This demonstration page uses our WeatherBlox Daily Observations layout. Learn more.

40.92945, -100.16068

Hourly Observations for December 23, 2019

Temp ( °F °C ) Dew Point ( °F °C ) Humidity (%) Winds ( mph kmh ) Pressure ( in mb ) Visibility ( mi km ) Precip ( " mm )
12:15 am 00:15 Clear 29 -1.5 27 -3 90 90 Calm 30.09 1019 10 16.0934 0 0
12:35 am 00:35 Clear 30 -1 26 -3.5 83 83 Calm 30.09 1019 10 16.0934 0 0
12:55 am 00:55 Clear 30 -1.2 26 -3.5 85 85 SW 3 6 30.08 1019 10 16.0934 0 0
1:15 am 01:15 Clear 29 -1.4 26 -3.2 88 88 SW 6 9 30.07 1018 10 16.0934 0 0
1:35 am 01:35 Clear 29 -1.7 26 -3.3 89 89 S 5 7 30.06 1018 10 16.0934 0 0
1:55 am 01:55 Clear 28 -2.1 26 -3.4 91 91 N 5 7 30.07 1018 10 16.0934 0 0
2:15 am 02:15 Clear 29 -1.9 26 -3.4 90 90 NNW 6 9 30.07 1018 10 16.0934 0 0
2:35 am 02:35 Clear 28 -2.2 25 -3.7 90 90 Calm 30.07 1018 10 16.0934 0 0
2:55 am 02:55 Clear 27 -2.9 25 -4 92 92 W 5 7 30.08 1018 10 16.0934 0 0
3:15 am 03:15 Clear 27 -2.9 25 -4 92 92 W 5 7 30.09 1019 10 16.0934 0 0
3:35 am 03:35 Clear 26 -3.1 25 -4.1 93 93 W 3 6 30.08 1019 10 16.0934 0 0
3:55 am 03:55 Clear 26 -3.1 24 -4.2 92 92 WNW 5 7 30.08 1019 10 16.0934 0 0
4:15 am 04:15 Clear 25 -3.7 23 -4.8 92 92 WNW 7 11 30.08 1019 10 16.0934 0 0
4:35 am 04:35 Clear 26 -3.5 24 -4.5 93 93 WNW 3 6 30.07 1018 10 16.0934 0 0
4:55 am 04:55 Clear 26 -3.3 24 -4.3 93 93 W 3 6 30.07 1018 10 16.0934 0 0
5:15 am 05:15 Clear 26 -3.5 24 -4.5 93 93 NW 8 13 30.07 1018 10 16.0934 0 0
5:35 am 05:35 Clear 26 -3.5 24 -4.5 93 93 W 3 6 30.07 1018 10 16.0934 0 0
5:55 am 05:55 Clear 26 -3.6 24 -4.6 93 93 W 5 7 30.07 1018 10 16.0934 0 0
6:15 am 06:15 Clear 25 -3.7 24 -4.5 94 94 WNW 6 9 30.08 1019 10 16.0934 0 0
6:35 am 06:35 Clear 26 -3.6 24 -4.5 94 94 NW 5 7 30.08 1019 10 16.0934 0 0
6:55 am 06:55 Clear 25 -3.9 23 -4.9 93 93 Calm 30.09 1019 10 16.0934 0 0
7:15 am 07:15 Clear 25 -4 23 -4.8 94 94 Calm 30.09 1019 10 16.0934 0 0
7:35 am 07:35 Clear 24 -4.3 23 -5.1 94 94 NW 7 11 30.09 1019 10 16.0934 0 0
7:55 am 07:55 Clear 24 -4.7 22 -5.6 94 94 S 3 6 30.1 1019 10 16.0934 0 0
8:15 am 08:15 Sunny 24 -4.7 22 -5.6 94 94 WSW 3 6 30.1 1019 10 16.0934 0 0
8:35 am 08:35 Sunny 25 -4 23 -4.9 94 94 Calm 30.1 1019 10 16.0934 0 0
8:55 am 08:55 Sunny 26 -3.1 25 -3.8 95 95 Calm 30.08 1019 10 16.0934 0 0
9:15 am 09:15 Sunny 28 -2.1 26 -3.4 91 91 Calm 30.07 1018 10 16.0934 0 0
9:35 am 09:35 Sunny 30 -1 28 -2.4 90 90 NNE 3 6 30.06 1018 10 16.0934 0 0
9:55 am 09:55 Sunny 32 -0.1 28 -2.3 85 85 NE 3 6 30.06 1018 10 16.0934 0 0
10:15 am 10:15 Sunny 35 1.5 29 -1.8 79 79 Calm 30.05 1018 10 16.0934 0 0
10:35 am 10:35 Sunny 38 3.4 29 -1.7 70 70 ENE 3 6 30.03 1017 10 16.0934 0 0
10:55 am 10:55 Sunny 40 4.5 30 -1.3 66 66 ENE 6 9 30.01 1016 10 16.0934 0 0
11:15 am 11:15 Sunny 42 5.8 32 -0.2 66 66 E 6 9 29.98 1015 10 16.0934 0 0
11:35 am 11:35 Sunny 44 6.8 30 -1 58 58 E 6 9 29.95 1014 10 16.0934 0 0
11:55 am 11:55 Sunny 46 7.7 30 -1.3 53 53 ESE 3 6 29.94 1014 10 16.0934 0 0
12:15 pm 12:15 Sunny 48 8.8 31 -0.8 51 51 E 7 11 29.91 1013 10 16.0934 0 0
12:35 pm 12:35 Sunny 48 8.9 30 -0.9 51 51 E 6 9 29.9 1013 10 16.0934 0 0
12:55 pm 12:55 Sunny 49 9.5 30 -1.1 48 48 SE 8 13 29.89 1012 10 16.0934 0 0
1:15 pm 13:15 Sunny 50 10.2 31 -0.7 47 47 Calm 29.88 1012 10 16.0934 0 0
1:35 pm 13:35 Sunny 51 10.5 31 -0.8 46 46 Calm 29.87 1011 10 16.0934 0 0
1:55 pm 13:55 Sunny 51 10.7 31 -0.7 46 46 Calm 29.85 1011 10 16.0934 0 0
2:15 pm 14:15 Sunny 51 10.7 30 -0.9 45 45 SSE 6 9 29.84 1011 10 16.0934 0 0
2:35 pm 14:35 Sunny 52 10.9 31 -0.7 45 45 SSE 3 6 29.84 1011 10 16.0934 0 0
2:55 pm 14:55 Sunny 52 11.1 30 -1.3 42 42 Calm 29.84 1011 10 16.0934 0 0
3:15 pm 15:15 Sunny 53 11.5 30 -1.1 42 42 Calm 29.85 1011 10 16.0934 0 0
3:35 pm 15:35 Sunny 52 11.1 31 -0.8 44 44 Calm 29.84 1011 10 16.0934 0 0
3:55 pm 15:55 Sunny 51 10.4 32 0 49 49 ESE 3 6 29.85 1011 10 16.0934 0 0
4:15 pm 16:15 Sunny 49 9.5 31 -0.7 49 49 NE 3 6 29.87 1011 10 16.0934 0 0
4:35 pm 16:35 Sunny 45 7.3 31 -0.6 58 58 E 5 7 29.89 1012 10 16.0934 0 0
4:55 pm 16:55 Sunny 45 7.4 30 -0.9 56 56 ESE 5 7 29.89 1012 10 16.0934 0 0
5:15 pm 17:15 Sunny 44 6.7 30 -1.1 58 58 SSE 9 15 29.89 1012 10 16.0934 0 0
5:35 pm 17:35 Clear 39 3.8 29 -1.8 67 67 SSW 6 9 29.93 1014 10 16.0934 0 0
5:55 pm 17:55 Clear 38 3.2 28 -2.3 68 68 SSW 5 7 29.95 1014 10 16.0934 0 0
6:15 pm 18:15 Clear 37 2.7 28 -2.3 70 70 Calm 29.95 1014 10 16.0934 0 0
6:35 pm 18:35 Clear 37 3 27 -2.7 67 67 WSW 5 7 29.95 1014 10 16.0934 0 0
6:55 pm 18:55 Clear 35 1.7 27 -2.8 72 72 Calm 29.96 1015 10 16.0934 0 0
7:15 pm 19:15 Clear 35 1.5 27 -3 72 72 Calm 29.96 1015 10 16.0934 0 0
7:35 pm 19:35 Clear 34 1 27 -3 75 75 Calm 29.96 1014 10 16.0934 0 0
7:55 pm 19:55 Clear 32 0 28 -2.5 83 83 Calm 29.97 1015 10 16.0934 0 0
8:15 pm 20:15 Clear 31 -0.4 28 -2.5 86 86 Calm 29.97 1015 10 16.0934 0 0
8:35 pm 20:35 Clear 31 -0.3 28 -2.3 87 87 Calm 29.97 1015 10 16.0934 0 0
8:55 pm 20:55 Clear 31 -0.3 28 -2.3 87 87 Calm 29.97 1015 10 16.0934 0 0
9:15 pm 21:15 Clear 31 -0.8 28 -2.5 88 88 Calm 29.97 1015 10 16.0934 0 0
9:35 pm 21:35 Clear 31 -0.7 28 -2 91 91 NNW 3 6 29.98 1015 10 16.0934 0 0
9:55 pm 21:55 Clear 31 -0.7 28 -2.2 90 90 Calm 29.96 1015 10 16.0934 0 0
10:15 pm 22:15 Clear 31 -0.6 28 -2.4 88 88 N 3 6 29.96 1015 10 16.0934 0 0
10:35 pm 22:35 Clear 31 -0.8 28 -2 92 92 Calm 29.96 1015 10 16.0934 0 0
10:55 pm 22:55 Clear 31 -0.8 28 -2.2 90 90 N 3 6 29.96 1015 10 16.0934 0 0
11:15 pm 23:15 Clear 31 -0.8 28 -2.2 90 90 NW 3 6 29.96 1015 10 16.0934 0 0
11:35 pm 23:35 Clear 31 -0.8 28 -2.2 90 90 Calm 29.95 1014 10 16.0934 0 0
11:55 pm 23:55 Clear 31 -0.6 27 -2.6 87 87 WNW 5 7 29.95 1014 10 16.0934 0 0

Powered by AerisWeather